Regional Weather Roundup
Issued by NWS State College, PA

Home | Current Version | Previous Version | Graphics & Text | Print | Product List | Glossary Off
Versions: 1 2 3 4 5 6 7 8 9 10 11 12 13 14 15 16 17 18 19 20 21 22 23 24 25 26 27 28 29 30 31 32 33 34 35 36 37 38 39 40 41 42 43 44 45 46 47 48 49 50

000
ASUS41 KCTP 061410
RWRCTP

REGIONAL WEATHER ROUNDUP
NATIONAL WEATHER SERVICE STATE COLLEGE PA
1000 AM EDT WED MAY 06 2015

Note: "fair" indicates few or no clouds below 12,000 feet with no
significant weather and/or obstructions to visibility.

* = STATION THAT DOES NOT REPORT PRECIPITATION /E.G. RAIN...SNOW...ETC/
    THUNDER OR FOG.

PAZ002>004-007>009-013>016-020>023-029>032-061500-
WESTERN PENNSYLVANIA

CITY           SKY/WX    TMP DP  RH WIND       PRES   REMARKS
ERIE           CLOUDY    57  54  89 NW3       30.24S FOG
MEADVILLE      CLOUDY    63  58  83 NW5       30.24S
FRANKLIN*      PTSUNNY   63  55  77 CALM      30.25F
NEW CASTLE     FAIR      70  62  75 NE7       30.24S
BEAVER COUNTY  SUNNY     68  59  73 SE8       30.23F
BUTLER*        SUNNY     68  57  68 SE9       30.25F
PITTSBURGH INT MOSUNNY   66  60  81 SE7       30.23F
PITTSBURGH     SUNNY     67  57  70 VRB6      30.23F
INDIANA*       MOSUNNY   68  57  68 E9        30.28F
LATROBE        SUNNY     64  63  94 NE9       30.27R
WASHINGTON CO* SUNNY     68  59  73 CALM      30.25F
$$

PAZ004>006-010>012-017>019-024>028-033>037-041-042-045-046-049>053-061500-
CENTRAL PENNSYLVANIA

CITY           SKY/WX    TMP DP  RH WIND       PRES   REMARKS
BRADFORD       CLOUDY    55  53  93 E7        30.28S
DUBOIS         CLOUDY    62  58  86 SE3       30.25S FOG
CLEARFIELD     CLOUDY    57  56  96 NE6       30.27F FOG
JOHNSTOWN      MOSUNNY   63  57  81 E9        30.28R
ALTOONA        CLOUDY    63  58  83 N13       30.29R
STATE COLLEGE  LGT RAIN  57  55  94 NE8       30.29F FOG
WILLIAMSPORT   LGT RAIN  57  54  89 N5        30.30S
SELINSGROVE    RAIN      59  55  87 N6        30.32R FOG
FT INDIANTOWN  CLOUDY    61  52  71 NE6       30.28R
CAPITAL CITY   PTSUNNY   65  55  70 E8        30.28R
HARRISBURG     PTSUNNY   65  55  70 NE7       30.27R
YORK           PTSUNNY   69  57  65 E14       30.25S
$$

PAZ038>040-043-044-047-048-054-055-060>062-067>071-061500-
EASTERN PENNSYLVANIA

CITY           SKY/WX    TMP DP  RH WIND       PRES   REMARKS
SCRANTON       LGT RAIN  55  51  86 N7        30.33R FOG
MOUNT POCONO   LGT RAIN  51  46  83 E10       30.33R
ALLENTOWN      CLOUDY    62  49  62 NE12      30.30R
QUAKERTOWN*    CLOUDY    63  48  59 NE7       30.30R
READING        CLOUDY    65  50  58 NE8       30.28R
LANCASTER      CLOUDY    62  55  77 NE9       30.27R
COATESVILLE    LGT RAIN  61  55  82 NE5G17    30.27F
POTTSTOWN      CLOUDY    66  46  48 E8        30.29S
BLUE BELL      CLOUDY    70  46  43 NE6       30.27S
DOYLESTOWN     CLOUDY    65  44  46 NE8       30.28R
WILLOW GROVE   NOT AVBL
NORTH PHILA    CLOUDY    69  42  37 E9        30.29R
PHILADELPHIA   CLOUDY    70  44  39 NE12      30.27R
$$


USA.gov is the U.S. government's official web portal to all federal, state and local government web resources and services.